Regional Weather Roundup
Issued by NWS Newport/Morehead, NC

Current Version | Previous Version | Text Only | Print | Product List | Glossary On
Versions: 1 2 3 4 5 6 7 8 9 10 11 12 13 14 15 16 17 18 19 20 21 22 23 24 25 26 27 28 29 30 31 32 33 34 35 36 37 38 39 40 41 42 43 44 45 46 47 48 49 50
000
ASUS42 KMHX 091524
RWRMHX
WEATHER ROUNDUP FOR EASTERN NORTH CAROLINA
NATIONAL WEATHER SERVICE NEWPORT/MOREHEAD CITY NC
1000 AM EST FRI DEC 09 2016

NOTE: "FAIR" INDICATES FEW OR NO CLOUDS BELOW 12,000 FEET
WITH NO SIGNIFICANT WEATHER AND/OR OBSTRUCTIONS TO VISIBILITY

NCZ015>017-031-032-045>047-102-103-091600-
NORTH COAST

CITY           SKY/WX    TMP DP  RH WIND       PRES   REMARKS
EDENTON        SUNNY     39  20  46 N14       30.37S
ELIZABETH CITY SUNNY     37  20  50 NW17      30.35R
KITTY HAWK     SUNNY     38  25  58 NW10G18   30.32R
MANTEO         SUNNY     39  20  46 N13G21    30.34R

$$

NCZ045>047-081-094-103-104-091600-
CENTRAL COAST

CITY           SKY/WX    TMP DP  RH WIND       PRES   REMARKS
FRISCO         SUNNY     41  23  48 VRB7G17   30.33R

$$

NCZ095-097-098-100-101-091600-
SOUTHERN COAST

CITY           SKY/WX    TMP DP  RH WIND       PRES   REMARKS
BEAUFORT       SUNNY     41  20  43 N13       30.36R
CEDAR ISLAND   NOT AVBL
JACKSONVILLE   SUNNY     40  18  41 N15       30.38R
PINEY ISLAND   SUNNY    N/A N/A N/A N16       30.35R
WILMINGTON     SUNNY     39  19  44 N16       30.39R


$$

NCZ011>013-027>030-043-044-078>080-089-090>093-098-091600-
COASTAL PLAIN

CITY           SKY/WX    TMP DP  RH WIND       PRES   REMARKS
AHOSKIE        SUNNY     35  16  46 N7        30.39R
CLINTON        SUNNY     39  21  49 NW10      30.41S
ELIZABETHTOWN  SUNNY     39  20  45 N8        30.41R
GOLDSBORO      SUNNY     38  17  41 NW8       30.37R
GREENVILLE     SUNNY     37  19  48 N8        30.39S
HAVELOCK       SUNNY     41  19  41 N10       30.38R
KENANSVILLE    SUNNY     39  18  41 N12G18    30.40R
KINSTON        SUNNY     39  19  45 N10       30.39R
NEW BERN       SUNNY     39  19  44 NW13      30.39R
RICHLANDS      SUNNY     39  20  46 N9        30.39R
ROCKY MOUNT    SUNNY     37  18  46 N13       30.40R
WASHINGTON     SUNNY     38  18  44 NW10      30.38S
WHITEVILLE     SUNNY     40  20  44 N8        30.41S

$$

AMZ130-135-150-152-154-156-158-170-250-252-270-ANZ085-086-088-633-658-670-091600-
MARINE OBSERVATIONS

STATION/POSITION TIME  TEMP    WIND        PRES    WAVE   SWELL
                       AIR SEA DIR/SP/G            HT/PER HT/PER
                 (UTC) (F)     (DEG/KT/KT) (MB)    (FT/S) (FT/S)
CHESAPEAKE LIGHT NOT AVBL
64 E VA BEACH    1450   40 58  340/ 19/ 25 1025.1    7/ 7   2/11
DUCK             1500   36 53  320/ 17/ 20 1026.4
2 E DUCK         NOT AVBL
OREGON INLET     1500      52  310/ 16/ 19 1026.8
13E OREGON INLT  NOT AVBL
HATTERAS CG      1500   39 55  330/ 16/ 19 1026.6
DIAMOND BUOY     1450   43 75  350/ 19/ 25 1026.2    5/ 8   3/ 8
CAPE LOOKOUT     1500   39     340/ 13/ 15 1027.5
BEAUFORT LAB     1500   39 52  360/ 11/ 15 1027.1
30 SE NEW RVR IN 1508   42 69   10/ 16/ 25 1028.1
30 SE NEW RVR IN NOT AVBL
27 SE WRIGHTSVLE 1508   43 67   20/ 16/ 25 1028.1
5 SE WRIGHTSVLE  1508   38 61  360/ 19/ 31 1028.6
225 S CAPE HAT   1450   62 73  350/ 17/ 23 1022.8    7/ 8   3/11
41 SE CHARLESTON 1450   50 73  360/ 17/ 23 1028.2    6/ 7   2/14

$$




USA.gov is the U.S. government's official web portal to all federal, state and local government web resources and services.